STARLINK-1759, 46340

Orbit data source: Space-Track

STARLINK-1759, 46340 is a payload satellite owned by SpaceX/Seattle (US) in LEO that was launched on Thu, 03 Sep 2020 UTC via an FALCON 9 launch vehicle from the Air Force Eastern Test Range (AFETR). Payload-class satellites include a variety of spacecraft equipped with specific instruments for various scientific and technological missions. These include communications satellites like Starlink; space stations such as the ISS; scientific satellites like the Hubble; Earth observation satellites from companies like Planet Labs, Umbra, and HawkEye 360; GPS; miniature CubeSats for education and research; and military/defense satellites.

Loading next visibility...
Identifier
46340, 2020-062R
Orbit
LEO
Country
Flag of USUS
Related business
Manufacturer
SpaceX/Seattle
Mission
Partially operational Commercial Communications
Bus & Motor
STARLINK, Unknown motor
Mass
260 kg wet, ~248 kg dry
Launch date (UTC)
2020-09-03 (5 years ago)
Launch vehicle
FALCON 9
Launch site
Air Force Eastern Test Range (AFETR)
Object type
Payload
Rocket body
Debris
Shape & HBR
Box + 1 Pan, 10.1 m
Radar Cross Section
13.562 m², Large (>1 m²)

Expand to show TLE details & history
Last TLE update: 1 day ago

TLE from 1 day ago
0 STARLINK-1759
1 46340U 20062R   25308.74106994  .00053378  00000-0  18472-2 0  9995
2 46340  53.0331 204.9964 0009179  78.2413 281.9615 15.29347496285646
Epoch: 2025-11-04T17:47Z
TLE epoch observation values (Epoch: 2025-11-04T17:47:08.442Z)
Latitude
-0.00004°
Longitude
-106.01255°
Altitude
477.349 km
Speed
7.629 km/s
True Right ascension
13h 39m 59s
True Declination
0° 00' 00"
Sunlit
Object was in daylight at epoch
Visualization orbit readout
Latitude
Unknown
Longitude
Unknown
Altitude
Unknown
Speed
Unknown
Apparent Right ascension
Unknown
Apparent Declination
Unknown
Sunlit
N/A
Visualization observer readout
Local Sidereal Time
17:19:17
Azimuth
Unknown
Elevation
Unknown
Doppler factor
Unknown
Orbital elements
Apogee altitude
484.332 km
Perigee altitude
471.745 km
Semi-major axis
6,856.176 km
Eccentricity
0.00092
Inclination
53.0331°
RAAN
204.9964°
Arg. of periapsis
78.2413°
True anomaly
281.85858°
Mean anomaly
281.9615°
Eccentric anomaly
281.91004°
Mean motion
3.82314 °/min
Orbital period
94.16 mins
BSTAR
0.0018472
Loading maneuver chart data...
Computing Atmospheric mass density...
Loading historical data...
Loading historical data...
Loading historical data...
Loading historical data...
Loading historical data...
Loading historical data...
Loading historical data...

Documentation

Showing up to 5 results
|